Location: Sternwarte Stuttgart
(48.7824°N, 9.1965°E)
Time: 12:17:31
(UTC+00:00)

ISS - Visible Passes

Search period start: 17 December 2018 00:00
Search period end: 27 December 2018 00:00
Orbit: 401 x 408 km, 51.6° (Epoch: 18 December)

Date Brightness Start Highest point End Pass type
(mag) Time Alt. Az. Time Alt. Az. Time Alt. Az.
22 Dec -0.1 06:05:46 10° SSE 06:06:37 11° SE 06:07:28 10° ESE visible
24 Dec -1.1 05:55:42 10° SSW 05:58:16 21° SE 06:00:50 10° E visible
25 Dec -0.7 05:04:36 10° SSE 05:06:13 13° SE 05:07:50 10° ESE visible
26 Dec -2.5 05:46:52 10° SW 05:49:58 40° SSE 05:53:05 10° ENE visible
